| time (UTC) | temp F | wind direction | speed knots | gust knots | rain 1hr in | rain 24hr in | rain mn in | humidity % | barometer mb |
| 20260502185824 | 70 | 28 | 3.5 | 12.2 | 0.00 | 0.55 | 0.09 | 96 | 1020.3 |
| 20260502185327 | 69 | 309 | 7.8 | 13.0 | 0.00 | 0.64 | 0.09 | 96 | 1020.4 |
| 20260502184834 | 69 | 355 | 7.0 | 14.8 | 0.00 | 0.64 | 0.09 | 96 | 1020.5 |
| 20260502184346 | 69 | 360 | 6.1 | 14.8 | 0.00 | 0.64 | 0.09 | 96 | 1020.6 |
| 20260502183850 | 68 | 355 | 5.2 | 11.3 | 0.00 | 0.64 | 0.09 | 96 | 1020.7 |
| 20260502183333 | 69 | 55 | 4.3 | 10.4 | 0.00 | 0.64 | 0.09 | 96 | 1020.7 |
| 20260502182819 | 69 | 24 | 4.3 | 13.0 | 0.00 | 0.64 | 0.09 | 96 | 1020.8 |
| 20260502182324 | 69 | 355 | 7.0 | 13.0 | 0.00 | 0.64 | 0.09 | 96 | 1021.0 |
| 20260502181826 | 68 | 320 | 7.8 | 12.2 | 0.00 | 0.64 | 0.09 | 96 | 1021.0 |
| 20260502181338 | 68 | 12 | 5.2 | 12.2 | 0.00 | 0.64 | 0.09 | 96 | 1021.0 |
| 20260502180842 | 68 | 360 | 5.2 | 11.3 | 0.00 | 0.64 | 0.09 | 96 | 1021.1 |
| 20260502180327 | 68 | 325 | 3.5 | 12.2 | 0.00 | 0.64 | 0.09 | 96 | 1021.1 |
| 20260502170321 | 66 | 325 | 6.1 | 11.3 | 0.00 | 0.73 | 0.09 | 96 | 1021.7 |
| 20260502164318 | 64 | 20 | 4.3 | 11.3 | 0.00 | 0.84 | 0.09 | 97 | 1021.8 |
| 20260502163831 | 64 | 341 | 6.1 | 11.3 | 0.00 | 0.84 | 0.09 | 97 | 1021.9 |
| 20260502163337 | 64 | 343 | 5.2 | 10.4 | 0.00 | 0.84 | 0.09 | 97 | 1021.8 |
| 20260502162824 | 64 | 35 | 4.3 | 8.7 | 0.00 | 0.84 | 0.09 | 97 | 1021.7 |
| 20260502162324 | 63 | 13 | 2.6 | 12.2 | 0.00 | 0.84 | 0.09 | 97 | 1021.7 |
| 20260502161851 | 63 | 12 | 8.7 | 12.2 | 0.00 | 0.84 | 0.09 | 97 | 1021.8 |
| 20260502161335 | 63 | 324 | 6.1 | 10.4 | 0.00 | 0.84 | 0.09 | 97 | 1021.8 |
| 20260502160820 | 62 | 11 | 5.2 | 11.3 | 0.00 | 0.84 | 0.09 | 97 | 1021.8 |
| 20260502160352 | 62 | 9 | 5.2 | 11.3 | 0.00 | 0.84 | 0.09 | 96 | 1021.8 |
| 20260502152326 | 61 | 12 | 4.3 | 8.7 | 0.00 | 0.96 | 0.09 | 97 | 1021.8 |
| 20260502151832 | 60 | 360 | 3.5 | 8.7 | 0.00 | 0.96 | 0.09 | 97 | 1021.8 |
| 20260502151406 | 60 | 360 | 5.2 | 9.6 | 0.00 | 0.96 | 0.09 | 97 | 1021.8 |
| 20260502150827 | 60 | 320 | 4.3 | 10.4 | 0.00 | 0.96 | 0.09 | 97 | 1021.8 |
| 20260502150330 | 60 | 344 | 7.0 | 11.3 | 0.00 | 0.96 | 0.09 | 97 | 1021.8 |
| 20260502130332 | 52 | 323 | 0.9 | 4.3 | 0.00 | 1.20 | 0.09 | 96 | 1020.5 |
| 20260502045820 | 52 | 54 | 5.2 | 9.6 | 0.03 | 1.56 | 0.00 | 95 | 1017.2 |
| 20260502045323 | 52 | 46 | 5.2 | 9.6 | 0.02 | 1.57 | 1.55 | 95 | 1017.3 |
| 20260502044834 | 52 | 39 | 3.5 | 7.8 | 0.02 | 1.57 | 1.55 | 95 | 1017.3 |
| 20260502044340 | 52 | 38 | 4.3 | 7.0 | 0.03 | 1.57 | 1.55 | 95 | 1017.3 |
| 20260502043827 | 52 | 5 | 3.5 | 7.0 | 0.03 | 1.57 | 1.55 | 95 | 1017.2 |
| 20260502043333 | 52 | 19 | 3.5 | 7.0 | 0.03 | 1.57 | 1.55 | 95 | 1017.3 |
| 20260502042822 | 52 | 13 | 3.5 | 7.0 | 0.02 | 1.56 | 1.54 | 95 | 1017.3 |
| 20260502042329 | 52 | 5 | 2.6 | 7.0 | 0.02 | 1.56 | 1.54 | 95 | 1017.4 |
| 20260502041832 | 52 | 355 | 3.5 | 7.8 | 0.03 | 1.56 | 1.54 | 95 | 1017.3 |
| 20260502041318 | 52 | 63 | 4.3 | 7.8 | 0.03 | 1.56 | 1.54 | 95 | 1017.3 |
| 20260502040820 | 52 | 35 | 4.3 | 8.7 | 0.03 | 1.56 | 1.54 | 95 | 1017.3 |
| 20260502040332 | 52 | 29 | 4.3 | 9.6 | 0.02 | 1.55 | 1.53 | 95 | 1017.3 |
| 20260502035841 | 52 | 45 | 5.2 | 9.6 | 0.03 | 1.55 | 1.53 | 95 | 1017.4 |
| 20260502035325 | 52 | 55 | 4.3 | 9.6 | 0.03 | 1.55 | 1.53 | 95 | 1017.4 |
| 20260502034849 | 52 | 360 | 4.3 | 10.4 | 0.03 | 1.55 | 1.53 | 95 | 1017.3 |
| 20260502034343 | 52 | 48 | 4.3 | 10.4 | 0.02 | 1.54 | 1.52 | 95 | 1017.3 |
| 20260502033818 | 52 | 67 | 5.2 | 11.3 | 0.03 | 1.54 | 1.52 | 95 | 1017.3 |
| 20260502033330 | 51 | 45 | 5.2 | 11.3 | 0.03 | 1.54 | 1.52 | 95 | 1017.4 |
| 20260502032833 | 51 | 46 | 7.8 | 11.3 | 0.03 | 1.54 | 1.52 | 95 | 1017.4 |
| 20260502032334 | 51 | 61 | 6.1 | 13.9 | 0.03 | 1.54 | 1.52 | 95 | 1017.4 |
| 20260502031820 | 51 | 53 | 3.5 | 13.9 | 0.03 | 1.53 | 1.51 | 95 | 1017.3 |
| 20260502031326 | 51 | 61 | 5.2 | 11.3 | 0.03 | 1.53 | 1.51 | 95 | 1017.2 |
| 20260502030900 | 51 | 60 | 4.3 | 12.2 | 0.03 | 1.53 | 1.51 | 95 | 1017.1 |
| 20260502030340 | 51 | 43 | 7.0 | 13.9 | 0.03 | 1.53 | 1.51 | 95 | 1017.2 |
| 20260502025825 | 51 | 44 | 6.1 | 14.8 | 0.03 | 1.52 | 1.50 | 95 | 1017.1 |
| 20260502025325 | 51 | 48 | 7.8 | 14.8 | 0.03 | 1.52 | 1.50 | 95 | 1016.9 |
| 20260502024829 | 51 | 45 | 6.1 | 11.3 | 0.03 | 1.52 | 1.50 | 95 | 1016.9 |
| 20260502024343 | 51 | 33 | 5.2 | 11.3 | 0.04 | 1.52 | 1.50 | 95 | 1016.7 |
| 20260502023844 | 51 | 65 | 4.3 | 11.3 | 0.03 | 1.51 | 1.49 | 95 | 1016.6 |
| 20260502023328 | 51 | 42 | 7.0 | 12.2 | 0.03 | 1.51 | 1.49 | 95 | 1016.5 |
| 20260502022854 | 51 | 64 | 7.0 | 17.4 | 0.03 | 1.51 | 1.49 | 95 | 1016.5 |
| 20260502022336 | 52 | 61 | 7.8 | 17.4 | 0.04 | 1.51 | 1.49 | 95 | 1016.3 |
| 20260502021822 | 52 | 31 | 7.8 | 14.8 | 0.03 | 1.50 | 1.48 | 95 | 1016.2 |
| 20260502021325 | 52 | 15 | 6.1 | 12.2 | 0.03 | 1.50 | 1.48 | 95 | 1016.0 |
| 20260502020835 | 52 | 5 | 7.0 | 17.4 | 0.04 | 1.50 | 1.48 | 95 | 1016.0 |
| 20260502020342 | 52 | 19 | 8.7 | 18.2 | 0.04 | 1.50 | 1.48 | 95 | 1015.8 |
| 20260502015829 | 53 | 41 | 9.6 | 18.2 | 0.03 | 1.49 | 1.47 | 95 | 1015.6 |
| 20260502015329 | 53 | 5 | 7.0 | 14.8 | 0.04 | 1.49 | 1.47 | 95 | 1015.8 |
| 20260502014850 | 53 | 11 | 7.8 | 13.9 | 0.04 | 1.49 | 1.47 | 95 | 1015.6 |
| 20260502014333 | 53 | 360 | 7.0 | 13.9 | 0.03 | 1.48 | 1.46 | 95 | 1015.6 |
| 20260502013844 | 53 | 61 | 7.8 | 13.0 | 0.04 | 1.48 | 1.46 | 95 | 1015.3 |
| 20260502013329 | 53 | 24 | 7.0 | 14.8 | 0.04 | 1.48 | 1.46 | 95 | 1015.2 |
| 20260502012832 | 53 | 50 | 8.7 | 14.8 | 0.03 | 1.47 | 1.45 | 95 | 1014.8 |
| 20260502012319 | 53 | 47 | 7.8 | 13.9 | 0.04 | 1.47 | 1.45 | 95 | 1014.8 |
| 20260502011825 | 53 | 15 | 6.1 | 11.3 | 0.04 | 1.47 | 1.45 | 95 | 1014.9 |
| 20260502011328 | 53 | 28 | 7.0 | 11.3 | 0.04 | 1.47 | 1.45 | 95 | 1015.3 |
| 20260502010834 | 53 | 32 | 6.1 | 13.0 | 0.04 | 1.46 | 1.44 | 95 | 1015.4 |
| 20260502010320 | 53 | 26 | 7.0 | 13.0 | 0.04 | 1.46 | 1.44 | 95 | 1015.3 |
| 20260502005829 | 53 | 63 | 7.8 | 14.8 | 0.04 | 1.46 | 1.44 | 95 | 1015.2 |
| 20260502005330 | 53 | 34 | 9.6 | 14.8 | 0.04 | 1.45 | 1.43 | 95 | 1015.0 |
| 20260502004843 | 54 | 30 | 8.7 | 14.8 | 0.04 | 1.45 | 1.43 | 95 | 1015.1 |
| 20260502004319 | 54 | 32 | 8.7 | 14.8 | 0.05 | 1.45 | 1.43 | 95 | 1015.2 |
| 20260502003831 | 54 | 25 | 7.8 | 14.8 | 0.04 | 1.44 | 1.42 | 95 | 1015.0 |
| 20260502003337 | 54 | 15 | 7.0 | 13.9 | 0.04 | 1.44 | 1.42 | 95 | 1014.7 |
| 20260502002900 | 54 | 28 | 6.1 | 13.9 | 0.05 | 1.44 | 1.42 | 95 | 1014.6 |
| 20260502002345 | 54 | 47 | 5.2 | 13.9 | 0.04 | 1.43 | 1.41 | 95 | 1014.5 |
| 20260502001835 | 54 | 46 | 7.0 | 12.2 | 0.04 | 1.43 | 1.41 | 95 | 1014.4 |
| 20260502001344 | 54 | 53 | 7.0 | 13.9 | 0.05 | 1.43 | 1.41 | 95 | 1014.7 |
| 20260502000826 | 54 | 17 | 8.7 | 13.9 | 0.04 | 1.42 | 1.40 | 95 | 1014.8 |
| 20260502000332 | 54 | 16 | 7.0 | 12.2 | 0.05 | 1.42 | 1.40 | 95 | 1015.1 |
| 20260501235833 | 54 | 17 | 4.3 | 9.6 | 0.05 | 1.42 | 1.40 | 95 | 1014.9 |
| 20260501235318 | 54 | 345 | 5.2 | 11.3 | 0.04 | 1.41 | 1.39 | 95 | 1014.8 |
| 20260501234850 | 54 | 14 | 7.0 | 12.2 | 0.05 | 1.41 | 1.39 | 95 | 1014.7 |
| 20260501234333 | 54 | 13 | 7.8 | 13.0 | 0.04 | 1.40 | 1.38 | 95 | 1014.7 |
| 20260501233839 | 54 | 39 | 7.8 | 12.2 | 0.05 | 1.40 | 1.38 | 95 | 1014.6 |
| 20260501233324 | 54 | 38 | 6.1 | 12.2 | 0.05 | 1.40 | 1.38 | 95 | 1014.7 |
| 20260501232852 | 55 | 351 | 7.0 | 15.6 | 0.04 | 1.39 | 1.37 | 95 | 1014.7 |
| 20260501232332 | 55 | 349 | 7.0 | 15.6 | 0.05 | 1.39 | 1.37 | 95 | 1014.4 |
| 20260501231837 | 55 | 12 | 7.0 | 12.2 | 0.04 | 1.38 | 1.36 | 95 | 1014.3 |
| 20260501231323 | 55 | 5 | 6.1 | 9.6 | 0.04 | 1.38 | 1.36 | 95 | 1014.4 |
| 20260501230825 | 55 | 351 | 4.3 | 11.3 | 0.05 | 1.38 | 1.36 | 95 | 1014.6 |
| 20260501230359 | 55 | 19 | 7.0 | 12.2 | 0.04 | 1.37 | 1.35 | 95 | 1014.2 |
| 20260501225842 | 55 | 16 | 4.3 | 12.2 | 0.05 | 1.37 | 1.35 | 95 | 1014.0 |
| 20260501225350 | 55 | 14 | 7.0 | 13.0 | 0.05 | 1.37 | 1.35 | 95 | 1013.8 |
| 20260501224832 | 55 | 47 | 7.0 | 14.8 | 0.05 | 1.36 | 1.34 | 95 | 1013.2 |
| 20260501224337 | 55 | 19 | 8.7 | 14.8 | 0.05 | 1.36 | 1.34 | 95 | 1012.8 |
| 20260501223822 | 55 | 32 | 6.1 | 14.8 | 0.05 | 1.35 | 1.33 | 95 | 1012.9 |
| 20260501223326 | 56 | 15 | 10.4 | 14.8 | 0.05 | 1.35 | 1.33 | 95 | 1012.9 |
| 20260501222831 | 56 | 342 | 8.7 | 13.9 | 0.06 | 1.35 | 1.33 | 95 | 1012.8 |
| 20260501222341 | 56 | 38 | 8.7 | 12.2 | 0.05 | 1.34 | 1.32 | 95 | 1012.8 |
| 20260501221819 | 56 | 30 | 5.2 | 10.4 | 0.06 | 1.34 | 1.32 | 95 | 1012.9 |
| 20260501221327 | 56 | 5 | 6.1 | 13.0 | 0.05 | 1.33 | 1.31 | 95 | 1012.9 |
| 20260501220853 | 56 | 53 | 6.1 | 13.0 | 0.06 | 1.33 | 1.31 | 95 | 1012.5 |
| 20260501220320 | 57 | 11 | 7.8 | 13.9 | 0.06 | 1.33 | 1.31 | 95 | 1012.2 |
| 20260501215823 | 57 | 5 | 7.8 | 13.9 | 0.06 | 1.32 | 1.30 | 95 | 1011.8 |
| 20260501215327 | 57 | 57 | 7.0 | 15.6 | 0.06 | 1.32 | 1.30 | 95 | 1011.6 |
| 20260501214842 | 57 | 336 | 7.8 | 15.6 | 0.06 | 1.31 | 1.29 | 95 | 1011.3 |
| 20260501214346 | 57 | 74 | 10.4 | 19.1 | 0.06 | 1.31 | 1.29 | 95 | 1011.0 |
| 20260501213830 | 57 | 42 | 12.2 | 19.1 | 0.06 | 1.30 | 1.28 | 95 | 1010.8 |
| 20260501213335 | 57 | 46 | 11.3 | 17.4 | 0.06 | 1.30 | 1.28 | 95 | 1010.8 |
| 20260501212822 | 57 | 18 | 7.8 | 15.6 | 0.06 | 1.29 | 1.27 | 95 | 1010.9 |
| 20260501212327 | 57 | 15 | 8.7 | 15.6 | 0.06 | 1.29 | 1.27 | 95 | 1011.3 |
| 20260501211833 | 57 | 13 | 8.7 | 14.8 | 0.06 | 1.28 | 1.26 | 95 | 1011.7 |
| 20260501211319 | 58 | 26 | 7.8 | 14.8 | 0.07 | 1.28 | 1.26 | 95 | 1011.4 |
| 20260501210827 | 58 | 67 | 8.7 | 14.8 | 0.06 | 1.27 | 1.25 | 95 | 1011.5 |
| 20260501210335 | 58 | 36 | 7.8 | 14.8 | 0.07 | 1.27 | 1.25 | 95 | 1011.9 |
| 20260501205823 | 58 | 22 | 7.8 | 14.8 | 0.06 | 1.26 | 1.24 | 95 | 1012.2 |
| 20260501205328 | 58 | 14 | 6.1 | 12.2 | 0.07 | 1.27 | 1.24 | 95 | 1012.8 |
| 20260501204826 | 58 | 340 | 6.1 | 11.3 | 0.07 | 1.26 | 1.23 | 95 | 1013.0 |
| 20260501204332 | 58 | 16 | 7.0 | 11.3 | 0.07 | 1.26 | 1.23 | 95 | 1013.4 |
| 20260501203847 | 58 | 332 | 3.5 | 14.8 | 0.07 | 1.25 | 1.22 | 95 | 1013.2 |
| 20260501203351 | 58 | 11 | 6.1 | 18.2 | 0.08 | 1.25 | 1.22 | 95 | 1012.1 |
| 20260501202838 | 58 | 13 | 7.0 | 18.2 | 0.07 | 1.24 | 1.21 | 95 | 1011.0 |
| 20260501202323 | 58 | 64 | 7.8 | 20.0 | 0.08 | 1.24 | 1.21 | 95 | 1010.9 |
| 20260501201829 | 58 | 42 | 9.6 | 20.0 | 0.08 | 1.23 | 1.20 | 95 | 1011.0 |
| 20260501201337 | 58 | 28 | 11.3 | 17.4 | 0.07 | 1.22 | 1.19 | 95 | 1011.1 |
| 20260501200824 | 58 | 32 | 7.8 | 18.2 | 0.08 | 1.22 | 1.19 | 95 | 1011.4 |
| 20260501200328 | 58 | 348 | 7.8 | 18.2 | 0.08 | 1.21 | 1.18 | 95 | 1011.5 |
| 20260501195837 | 58 | 33 | 9.6 | 17.4 | 0.08 | 1.21 | 1.18 | 95 | 1011.6 |
| 20260501195324 | 58 | 36 | 8.7 | 16.5 | 0.08 | 1.20 | 1.17 | 95 | 1011.8 |
| 20260501194828 | 58 | 5 | 10.4 | 15.6 | 0.07 | 1.19 | 1.16 | 95 | 1012.4 |
| 20260501194340 | 58 | 355 | 8.7 | 14.8 | 0.08 | 1.19 | 1.16 | 95 | 1012.4 |
| 20260501193825 | 58 | 28 | 6.1 | 14.8 | 0.08 | 1.18 | 1.15 | 95 | 1012.7 |
| 20260501193328 | 58 | 11 | 9.6 | 14.8 | 0.07 | 1.17 | 1.14 | 95 | 1012.8 |
| 20260501192832 | 58 | 338 | 9.6 | 13.0 | 0.08 | 1.17 | 1.14 | 95 | 1012.9 |
| 20260501192318 | 58 | 336 | 6.1 | 13.0 | 0.08 | 1.16 | 1.13 | 95 | 1012.9 |
| 20260501191825 | 58 | 325 | 7.8 | 13.0 | 0.08 | 1.15 | 1.12 | 95 | 1013.1 |
| 20260501191358 | 58 | 360 | 7.0 | 11.3 | 0.08 | 1.15 | 1.12 | 95 | 1013.2 |
| 20260501190844 | 58 | 326 | 4.3 | 5.2 | 0.08 | 1.14 | 1.11 | 95 | 1013.2 |
| 20260501190328 | 58 | 360 | 2.6 | 5.2 | 0.08 | 1.13 | 1.10 | 95 | 1013.1 |